Temperature
18 18 18 17 17 17 18 19 19 19 19 19 19 18 17 16 16 15 15 14 14 14 13 13 13 13 13 13 13 12 12 12 12 12 12 12 12 12 12 12 12 12 12 12
17 17 17 17 17 17 17 18 18 18 18 19 18 17 16 16 15 15 14 14 14 14 13 13 13 13 12 12 12 12 12 12 12 12 12 12 12 12 11 11 11 11 11 11
18 17 17 17 18 17 17 17 18 18 19 18 17 16 16 15 15 15 14 14 13 13 13 13 13 12 12 12 12 12 12 11 11 11 11 11 11 11 11 11 11 11 11 11
17 17 16 18 17 17 17 17 17 17 17 17 16 15 15 14 14 14 14 13 13 13 13 13 12 12 12 11 11 11 11 11 11 11 11 11 11 11 11 10 11 11 11 11
16 16 17 17 16 16 16 17 17 17 16 16 15 15 15 14 13 13 13 13 13 13 12 12 12 11 11 11 11 11 11 10 11 11 11 10 10 10 10 10 10 10 10 10
16 15 16 17 16 15 16 16 16 16 16 15 15 16 16 14 13 13 12 12 12 12 12 12 11 11 11 10 10 10 10 10 10 10 10 10 10 10 10 10 10 10 10 9
15 15 17 17 15 15 16 17 15 14 14 14 15 15 14 13 12 12 12 12 11 11 11 11 11 11 10 10 10 10 10 9 9 10 9 9 10 10 10 10 9 9 9 9
15 15 16 15 14 15 16 14 14 13 13 13 13 13 12 12 12 12 11 11 11 11 10 10 10 10 10 9 9 9 9 9 9 9 9 9 9 9 9 9 9 9 9 9
15 16 15 14 14 14 13 13 13 13 12 12 12 12 12 11 11 11 11 11 10 10 10 10 10 9 9 9 9 9 8 8 9 9 9 9 9 9 8 8 8 8 8 8
14 15 14 13 13 12 12 12 12 12 12 11 11 11 11 11 11 10 10 10 10 10 10 9 9 9 9 9 9 8 8 8 8 8 8 8 8 8 8 8 8 8 8 8
14 15 13 12 12 12 12 11 11 11 11 11 11 11 11 11 10 10 10 10 9 9 9 9 9 8 8 8 8 8 8 8 8 8 8 8 8 7 8 8 8 8 8 8
15 15 14 14 12 12 11 11 11 11 11 11 10 10 10 10 10 10 9 9 9 9 9 9 8 8 8 8 8 8 8 7 7 7 7 7 7 7 7 7 7 7 7 7
13 12 12 12 11 11 11 11 11 10 10 10 10 10 10 10 9 9 9 9 9 8 8 8 8 8 8 8 7 7 7 7 7 7 7 7 6 6 6 6 7 7 7 7
11 11 11 11 11 11 10 10 10 10 10 10 9 9 9 9 9 9 9 8 8 8 8 8 8 8 7 7 7 7 6 7 6 6 6 6 6 6 6 6 6 6 6 6
10 10 11 10 10 10 10 10 10 9 9 9 9 9 9 8 8 8 8 8 8 7 7 7 7 7 7 7 6 6 6 6 6 6 6 6 5 5 5 5 5 5 5 5
10 10 10 10 10 9 9 9 9 9 9 9 9 8 8 8 8 8 8 7 7 7 7 7 7 7 6 6 6 6 6 6 6 5 5 5 5 5 5 5 5 5 5 5
9 9 9 9 9 9 9 8 8 8 8 8 8 8 8 7 7 7 7 7 7 6 6 6 6 6 6 6 5 5 5 5 5 5 5 5 4 4 4 4 4 4 4 4
10 9 9 9 9 8 8 8 8 8 8 8 8 7 7 7 7 6 6 6 6 6 6 5 5 5 5 5 5 5 5 5 5 4 4 4 4 4 4 4 4 4 4 4
9 9 8 8 8 8 8 8 8 7 7 7 7 7 7 6 6 6 6 6 5 5 5 5 5 5 5 5 5 4 4 4 4 4 4 4 3 3 3 3 3 3 3 3
8 8 8 8 8 7 7 7 7 7 7 7 7 6 6 6 6 5 5 5 5 5 5 4 4 4 4 4 4 4 4 4 3 3 3 3 3 3 3 3 3 2 2 2
8 8 8 7 7 7 7 7 7 7 7 6 6 6 6 6 5 5 5 5 4 4 4 4 4 4 4 4 4 4 3 3 3 3 2 2 2 2 2 2 2 2 2 2
8 7 7 7 7 6 6 6 6 6 6 6 6 6 5 5 5 5 4 4 4 4 4 4 4 3 3 3 3 3 3 3 2 2 2 2 2 2 2 2 2 2 2 2
7 7 7 6 6 6 6 6 6 6 6 5 5 5 5 5 4 4 4 4 4 4 3 3 3 3 3 3 3 3 3 2 2 2 2 1 1 1 1 2 2 1 1 1
7 7 6 6 6 6 6 6 6 5 5 5 5 5 4 4 4 4 4 4 3 3 3 3 3 3 3 2 2 2 2 2 2 1 1 1 1 1 1 1 1 1 1 1
6 6 6 6 6 6 6 5 5 5 5 5 4 4 4 4 4 4 3 3 3 3 3 3 3 2 2 2 2 2 2 1 1 1 1 1 1 1 1 1 1 1 1 1
6 6 6 6 6 5 5 5 5 5 4 4 4 4 4 4 4 3 3 3 3 3 2 2 2 2 2 1 1 1 1 1 1 1 1 0 0 0 0 0 0 0 0 1
6 6 5 5 5 5 5 5 4 4 4 4 4 3 3 3 3 3 3 3 2 2 2 2 2 2 1 1 1 1 1 1 0 0 0 0 -0 -0 -0 -0 -0 -0 0 0
Wind_Speed
7 5 5 8 9 10 12 12 11 10 9 8 5 4 4 4 3 3 2 2 1 1 1 1 1 1 2 1 2 2 3 3 3 3 3 3 3 4 4 4 4 4 4 4
7 6 6 10 12 13 14 13 13 13 12 7 4 3 4 4 4 4 3 2 2 2 2 2 2 2 2 2 2 2 3 3 3 2 2 2 3 3 4 4 4 4 4 4
7 5 7 11 11 12 11 11 11 12 9 5 4 5 5 4 4 4 4 3 3 3 3 3 3 3 3 2 2 2 2 2 2 2 2 2 2 3 3 4 4 4 4 4
5 5 9 3 0 5 7 8 9 9 7 6 5 4 4 4 4 4 4 4 4 3 3 2 2 2 2 2 2 2 2 2 2 2 2 2 3 3 3 3 4 4 4 5
5 7 8 5 3 4 6 6 6 7 6 4 3 4 4 3 3 4 3 3 3 3 2 2 2 2 2 2 2 2 3 3 2 2 3 3 3 4 4 3 4 4 4 5
7 7 7 2 3 2 4 5 2 4 4 4 4 5 3 1 2 3 2 1 2 2 2 2 2 2 2 3 3 3 3 3 3 3 3 4 4 4 3 3 4 3 4 4
11 9 7 2 3 5 6 1 2 3 3 3 4 4 2 2 2 2 1 1 1 2 2 2 2 2 2 3 3 3 3 3 3 3 4 4 3 3 3 3 3 3 3 3
8 9 7 5 6 6 2 2 2 2 3 3 3 3 2 2 2 2 1 2 2 2 2 2 2 3 3 3 3 3 3 3 3 3 3 3 3 3 3 3 3 3 3 3
7 6 1 5 5 3 1 2 2 2 2 3 4 4 4 3 3 2 2 2 2 3 2 2 2 3 3 3 2 2 3 3 4 4 3 3 3 4 3 3 3 3 3 3
7 9 7 7 6 5 4 4 3 3 4 5 6 5 5 4 3 3 3 2 3 3 3 3 3 3 3 3 2 3 3 3 3 3 3 3 3 3 4 4 4 4 4 4
10 8 6 8 8 7 6 5 4 4 5 6 6 6 6 5 5 4 3 3 3 3 4 4 3 3 3 3 3 3 3 3 3 3 3 3 3 3 4 4 4 4 4 4
9 8 7 6 6 7 7 7 6 6 5 5 6 6 6 6 5 4 4 4 4 4 4 4 4 4 3 3 3 4 3 3 3 3 3 3 3 3 3 4 4 5 5 5
8 5 5 6 6 7 7 7 6 6 6 6 6 6 6 6 5 4 5 5 5 5 4 4 4 4 4 4 4 4 4 4 3 3 4 3 3 3 3 2 3 5 5 5
7 6 7 7 7 6 6 5 5 5 5 5 5 5 5 5 5 5 5 5 5 5 5 5 5 5 4 4 4 4 4 4 4 4 4 4 4 4 4 4 3 3 3 5
9 9 8 6 5 5 5 5 5 5 4 4 4 4 4 4 5 5 4 4 4 5 5 5 5 5 4 4 4 4 4 3 3 3 4 4 4 4 4 4 4 3 3 2
7 7 7 8 7 6 6 6 6 6 5 4 4 4 4 4 4 4 4 4 4 5 5 5 5 4 4 4 4 4 4 4 4 3 3 3 3 3 3 3 3 3 3 3
8 8 8 8 8 8 7 7 6 6 5 5 5 4 3 3 4 4 4 4 4 4 4 5 5 4 4 5 4 4 4 3 4 3 3 3 3 3 3 3 3 3 3 3
9 8 8 8 7 7 7 7 6 6 6 5 4 4 4 4 5 5 5 4 4 4 4 4 4 4 5 5 4 4 4 4 3 3 3 3 3 3 3 3 3 3 3 2
7 6 6 6 6 6 6 6 6 5 5 4 4 4 4 5 5 5 4 4 5 5 4 4 4 4 4 4 3 4 4 3 3 3 3 2 3 3 3 3 3 3 3 3
6 6 6 5 5 5 5 5 5 5 5 5 5 5 5 5 4 4 5 5 5 4 4 4 4 4 3 3 3 3 3 3 3 3 3 3 3 4 4 4 4 4 4 3
5 5 5 5 5 5 5 5 5 5 5 5 5 6 5 5 5 5 5 5 5 4 4 3 3 3 3 3 4 3 3 3 3 3 3 3 4 4 4 4 4 4 4 4
5 5 5 5 5 5 5 5 5 5 5 5 5 5 5 5 5 5 6 5 4 3 3 3 3 3 3 3 3 3 3 4 3 3 3 4 4 4 4 5 5 4 4 4
5 5 5 5 6 5 5 5 5 5 5 5 5 5 5 5 4 5 5 4 3 3 3 3 3 3 3 3 3 4 4 4 4 4 4 4 4 5 4 5 4 5 5 5
5 5 5 5 5 5 6 5 5 5 5 5 5 5 5 4 4 4 3 3 3 3 3 3 3 3 4 3 3 4 4 4 4 4 4 4 4 4 4 4 4 4 4 5
5 5 5 5 5 5 5 5 5 5 5 4 4 4 4 3 3 3 3 3 3 3 3 3 3 3 3 3 3 4 4 3 3 3 4 4 3 3 4 4 3 3 4 4
5 5 5 5 5 4 4 4 4 4 4 4 3 3 2 2 2 2 2 3 3 3 2 2 2 3 3 3 3 3 3 3 3 3 3 3 3 4 3 3 4 4 4 4
4 4 4 4 4 4 4 4 5 5 4 4 4 3 2 2 2 2 2 2 2 2 2 2 2 2 2 2 3 3 3 3 3 2 2 2 3 3 3 4 4 3 3 4
Wind_Direction
265 273 258 255 249 237 238 247 255 262 261 263 260 262 271 271 256 231 222 219 215 201 179 174 181 201 192 188 192 197 198 204 223 231 234 232 224 225 226 225 228 230 228 230
256 253 256 261 254 246 245 248 252 260 264 262 253 247 255 258 248 232 226 227 232 234 224 215 209 213 204 195 204 203 209 210 215 231 236 239 237 227 228 228 233 235 234 239
256 259 270 259 246 236 235 236 241 251 259 245 246 244 249 255 253 244 238 233 238 247 242 233 230 223 219 207 202 201 215 225 212 222 238 242 247 235 231 232 232 238 241 242
260 256 249 258 195 229 229 246 246 254 260 249 248 247 252 255 253 254 256 249 245 249 250 244 229 219 222 215 210 212 219 225 229 232 240 242 239 239 241 241 237 240 243 241
238 250 264 257 221 214 226 252 249 246 240 243 239 237 240 246 261 271 268 262 255 255 250 240 221 213 210 214 216 222 231 235 238 238 239 240 237 239 241 246 247 246 249 248
230 243 252 236 150 201 233 241 215 226 227 234 232 244 252 292 275 278 274 262 256 247 241 229 212 207 212 224 228 232 239 244 242 244 241 242 244 244 248 248 250 252 249 249
231 241 258 231 163 182 220 245 134 212 226 220 241 278 319 329 295 275 261 262 251 244 242 233 211 208 223 232 241 249 251 249 245 247 248 245 244 244 239 237 244 249 249 249
220 230 242 149 171 207 242 73 170 205 214 228 267 293 297 299 292 281 272 264 247 238 240 233 215 217 236 252 265 267 260 254 250 252 252 248 239 243 236 227 231 238 243 249
220 234 286 180 211 223 223 217 221 223 229 243 261 267 275 274 264 267 269 261 250 238 239 238 227 232 248 266 272 267 265 265 260 259 254 247 241 240 241 235 235 237 236 242
239 244 241 234 235 232 231 242 249 246 242 242 255 262 265 261 253 250 255 254 252 243 240 249 250 249 257 266 262 257 263 269 262 257 257 248 244 240 239 238 239 240 242 244
242 246 246 238 229 230 231 239 246 252 254 249 251 253 255 256 252 252 252 248 249 252 250 257 261 261 263 257 253 254 261 270 267 256 256 253 252 254 252 247 248 246 244 244
243 237 231 239 231 231 232 234 237 245 252 253 250 253 253 253 250 249 253 254 252 255 259 261 262 264 264 256 252 254 262 276 278 267 258 250 254 275 289 259 258 258 262 262
252 242 245 251 241 234 236 234 236 241 245 251 252 252 252 249 247 244 246 249 252 257 263 264 260 260 261 256 252 255 259 268 280 275 264 256 251 255 274 283 231 231 237 241
231 230 239 237 234 228 228 227 233 241 245 250 252 252 248 244 243 244 249 254 255 257 260 259 256 259 259 253 250 255 261 269 274 272 267 259 257 258 255 254 261 260 232 218
230 233 236 232 221 217 219 220 225 234 241 246 245 243 243 240 243 248 252 254 253 255 258 261 260 262 256 246 249 254 261 267 272 277 272 266 263 264 259 256 260 263 260 227
223 227 224 220 217 216 218 222 229 235 238 240 243 244 247 248 251 251 250 251 252 260 265 266 267 267 257 244 245 251 260 273 275 275 274 270 266 266 264 260 262 258 254 252
216 221 220 218 218 221 225 230 235 239 241 241 243 247 247 245 246 247 251 252 256 265 272 272 272 268 256 248 245 252 256 254 258 266 267 269 269 268 266 258 257 259 258 258
223 226 224 221 220 222 227 231 234 241 246 247 243 238 237 238 245 252 256 256 259 266 273 275 275 269 257 250 247 251 252 252 253 260 264 263 269 272 269 265 259 262 265 253
218 219 221 219 220 222 228 236 240 243 245 240 234 234 239 242 250 256 257 256 259 267 276 285 293 272 262 256 255 250 249 252 256 260 262 263 264 269 270 267 261 259 257 255
209 207 205 209 216 225 233 239 240 240 239 236 234 234 238 241 246 249 249 252 258 267 278 287 278 272 269 257 248 250 246 244 248 254 258 259 262 267 268 265 262 260 256 254
203 203 203 207 217 230 238 243 241 240 238 234 234 237 241 242 241 243 248 257 265 269 271 274 270 269 264 260 247 251 244 242 246 253 258 262 265 268 266 263 260 258 257 257
207 205 209 214 221 232 239 245 244 242 241 239 243 245 244 242 243 246 247 256 265 263 258 260 264 274 271 257 247 246 246 244 246 249 254 260 261 261 261 258 254 257 260 260
210 211 216 221 228 238 241 240 238 236 236 239 243 244 242 244 243 247 256 257 256 257 258 261 275 272 257 248 253 251 250 248 248 248 250 252 253 254 254 254 253 252 255 254
218 222 228 229 230 232 235 237 236 238 238 242 243 243 242 243 247 246 255 245 248 249 254 257 255 255 249 250 252 253 255 254 254 253 252 252 255 257 258 257 257 256 250 249
226 227 227 224 228 235 238 236 236 238 239 240 244 243 242 240 245 248 246 239 231 239 253 255 250 252 251 254 252 252 255 258 260 261 259 260 260 262 264 265 263 264 261 254
231 230 231 231 235 238 233 229 233 237 236 238 242 242 243 244 241 238 235 232 229 235 247 254 254 252 252 253 253 255 257 258 257 258 262 264 265 266 268 268 268 268 268 265
238 236 235 237 238 234 231 231 235 237 235 233 239 243 240 234 231 231 230 227 223 225 237 249 256 256 255 251 250 254 257 261 263 266 266 265 267 268 272 272 271 271 268 260
Height
1498 1498 1500 1500 1501 1501 1499 1496 1496 1493 1493 1492 1494 1497 1499 1500 1501 1501 1502 1503 1503 1503 1504 1504 1504 1505 1505 1505 1506 1506 1507 1508 1509 1510 1511 1511 1512 1512 1513 1514 1514 1515 1515 1515
1499 1499 1499 1499 1497 1497 1497 1495 1494 1493 1493 1492 1494 1497 1498 1498 1499 1500 1500 1501 1501 1502 1502 1502 1502 1503 1503 1503 1504 1504 1505 1505 1506 1507 1507 1508 1508 1509 1510 1510 1511 1511 1511 1511
1497 1497 1498 1495 1489 1491 1491 1491 1491 1491 1489 1491 1493 1495 1496 1497 1497 1498 1498 1499 1499 1500 1500 1500 1500 1500 1501 1501 1501 1502 1502 1503 1503 1503 1504 1505 1505 1506 1506 1507 1507 1507 1507 1507
1497 1499 1501 1487 1487 1487 1489 1488 1489 1489 1489 1491 1492 1494 1495 1495 1496 1495 1496 1496 1497 1497 1497 1498 1498 1498 1498 1499 1499 1499 1500 1500 1500 1500 1501 1501 1502 1502 1502 1503 1503 1503 1503 1503
1498 1496 1489 1485 1486 1488 1488 1486 1487 1488 1489 1490 1492 1492 1492 1493 1493 1494 1494 1494 1494 1495 1495 1495 1495 1495 1495 1496 1496 1496 1497 1497 1497 1497 1497 1498 1498 1498 1499 1499 1499 1499 1499 1499
1497 1497 1491 1482 1485 1487 1489 1486 1486 1487 1488 1489 1490 1488 1489 1491 1491 1492 1492 1492 1492 1492 1492 1492 1492 1492 1492 1493 1493 1493 1493 1493 1493 1494 1494 1494 1494 1494 1494 1494 1494 1495 1495 1495
1493 1492 1482 1482 1485 1488 1489 1483 1486 1487 1487 1489 1489 1489 1490 1490 1490 1490 1490 1490 1489 1489 1490 1490 1489 1489 1490 1490 1490 1490 1490 1490 1490 1490 1491 1491 1491 1491 1490 1490 1490 1490 1490 1491
1489 1490 1484 1483 1484 1484 1482 1484 1485 1486 1487 1488 1488 1488 1488 1488 1488 1488 1488 1487 1487 1487 1487 1487 1487 1487 1487 1487 1487 1487 1486 1486 1486 1487 1487 1487 1487 1486 1486 1486 1486 1486 1486 1486
1481 1480 1479 1481 1481 1482 1483 1483 1484 1485 1485 1486 1486 1486 1486 1486 1486 1486 1486 1485 1485 1485 1485 1484 1484 1484 1484 1484 1483 1483 1483 1482 1483 1483 1483 1483 1483 1482 1482 1483 1482 1482 1482 1482
1479 1476 1478 1479 1480 1480 1481 1482 1482 1483 1483 1484 1484 1483 1483 1483 1483 1483 1483 1483 1482 1482 1482 1482 1482 1481 1481 1481 1480 1480 1480 1479 1479 1479 1479 1479 1479 1479 1479 1479 1479 1479 1479 1478
1473 1473 1475 1475 1476 1477 1478 1479 1480 1480 1481 1481 1481 1481 1481 1481 1480 1480 1480 1480 1479 1480 1479 1479 1479 1478 1478 1477 1477 1477 1476 1476 1476 1475 1475 1475 1475 1474 1474 1474 1474 1474 1474 1474
1467 1468 1470 1471 1472 1474 1475 1475 1476 1477 1477 1477 1478 1477 1477 1477 1477 1477 1477 1476 1476 1476 1476 1476 1475 1475 1474 1474 1474 1473 1473 1472 1472 1471 1471 1470 1470 1470 1469 1469 1469 1470 1470 1470
1465 1466 1467 1468 1470 1471 1471 1472 1473 1473 1474 1474 1474 1474 1474 1473 1473 1473 1473 1473 1472 1472 1472 1472 1471 1471 1471 1470 1470 1469 1469 1468 1468 1467 1467 1466 1465 1465 1464 1464 1464 1465 1465 1465
1462 1463 1464 1465 1466 1467 1468 1468 1469 1469 1470 1470 1470 1470 1470 1469 1469 1469 1469 1469 1469 1468 1468 1468 1467 1467 1467 1466 1466 1465 1465 1464 1464 1463 1463 1462 1461 1461 1460 1460 1460 1460 1460 1461
1458 1460 1460 1461 1462 1463 1464 1465 1465 1466 1466 1466 1466 1466 1466 1466 1466 1465 1466 1465 1465 1465 1464 1464 1463 1463 1463 1462 1462 1461 1461 1460 1460 1459 1458 1458 1457 1457 1456 1456 1456 1455 1455 1456
1454 1455 1456 1457 1458 1460 1461 1461 1462 1462 1462 1462 1462 1462 1462 1462 1462 1461 1461 1461 1461 1460 1460 1459 1459 1459 1459 1458 1458 1457 1457 1456 1456 1455 1454 1454 1453 1453 1452 1452 1452 1451 1452 1452
1450 1451 1452 1453 1454 1456 1457 1457 1457 1458 1458 1458 1459 1459 1459 1458 1458 1458 1457 1457 1457 1457 1456 1456 1455 1455 1455 1454 1454 1453 1453 1452 1452 1451 1450 1450 1449 1449 1449 1448 1448 1447 1448 1448
1446 1447 1448 1449 1450 1451 1452 1453 1454 1454 1454 1455 1455 1455 1455 1455 1454 1454 1454 1454 1454 1453 1453 1452 1451 1451 1451 1450 1450 1449 1449 1448 1448 1447 1447 1446 1446 1445 1445 1445 1444 1444 1444 1444
1442 1443 1444 1446 1447 1448 1449 1449 1450 1450 1450 1451 1451 1451 1451 1451 1451 1451 1450 1450 1449 1449 1449 1448 1447 1447 1446 1446 1445 1445 1444 1444 1443 1443 1443 1442 1442 1442 1441 1441 1441 1440 1440 1440
1439 1440 1441 1442 1443 1444 1445 1446 1446 1446 1446 1447 1447 1447 1447 1447 1447 1447 1446 1446 1446 1445 1445 1444 1444 1443 1442 1442 1441 1441 1440 1440 1439 1439 1439 1438 1438 1437 1437 1437 1437 1437 1436 1436
1436 1437 1438 1439 1440 1441 1442 1442 1442 1442 1442 1443 1443 1443 1443 1443 1443 1443 1442 1442 1442 1442 1441 1441 1440 1439 1439 1438 1438 1437 1436 1436 1435 1435 1434 1434 1434 1433 1433 1433 1433 1432 1432 1432
1434 1434 1435 1436 1437 1437 1438 1438 1439 1439 1439 1439 1439 1439 1439 1439 1439 1439 1438 1438 1438 1438 1437 1437 1436 1435 1435 1434 1434 1433 1433 1432 1431 1431 1431 1430 1430 1429 1429 1428 1428 1428 1428 1428
1431 1431 1432 1433 1433 1433 1434 1434 1435 1435 1435 1435 1435 1435 1435 1435 1435 1435 1434 1434 1433 1433 1433 1432 1432 1431 1431 1430 1430 1429 1429 1428 1427 1427 1427 1426 1426 1425 1425 1424 1424 1424 1424 1424
1428 1428 1429 1429 1429 1430 1430 1430 1430 1431 1431 1431 1431 1431 1431 1431 1431 1430 1430 1430 1429 1429 1428 1428 1428 1427 1427 1427 1426 1425 1424 1424 1423 1423 1422 1422 1421 1421 1420 1420 1420 1420 1419 1419
1425 1425 1425 1425 1426 1426 1426 1426 1426 1426 1426 1427 1427 1427 1427 1427 1427 1426 1426 1426 1425 1425 1425 1424 1424 1423 1423 1423 1422 1421 1420 1420 1419 1419 1418 1417 1417 1417 1416 1416 1415 1415 1415 1415
1421 1421 1421 1422 1422 1422 1422 1422 1422 1422 1422 1422 1423 1423 1423 1422 1422 1422 1422 1422 1422 1421 1421 1421 1420 1420 1419 1419 1418 1417 1417 1416 1415 1415 1414 1414 1413 1413 1412 1412 1411 1411 1410 1410
1417 1417 1418 1418 1418 1418 1418 1418 1418 1418 1418 1418 1418 1418 1418 1419 1419 1419 1419 1419 1418 1418 1418 1417 1417 1416 1416 1415 1414 1414 1413 1413 1412 1412 1411 1410 1410 1409 1408 1408 1407 1406 1406 1406